Location: Perryvale
(54.4667°N, 113.3833°W)
Time: 22:41:38
(UTC+00:00)

Vanguard 1 - Pass Details

Date: 23 May 2024
Orbit: 652 x 3825 km, 34.2° (Epoch: 13 June)

Event Time Altitude Azimuth Distance (km) Brightness Sun altitude
Rises 10:41:24 0° 270° (W) 6,802 13.9 -4.4°
Reaches altitude 10° 10:49:04 10° 250° (WSW) 6,336 13.6 -3.7°
Maximum altitude 10:58:05 15° 224° (SW) 6,348 13.5 -2.7°
Drops below altitude 10° 11:07:55 10° 198° (SSW) 6,922 13.9 -1.6°
Sets 11:17:27 0° 179° (S) 7,820 14.3 -0.6°
